EW0345 Weather Reports


Display with metric or nautical units.
time (UTC)temp
F
wind
direction
speed
MPH
gust
MPH
rain 1hr
in
rain 24hr
in
rain mn
in
humidity
%
barometer
mb
20240614061534 67 0.0 0.0 0.00 0.00 0.00 76 1012.4
20240614060028 68 0.0 0.0 0.00 0.00 0.00 74 1012.5
20240614054527 68 0.0 0.0 0.00 0.00 0.00 73 1012.8
20240614053027 68 0.0 0.0 0.00 0.00 0.00 74 1012.8
20240614051528 68 0.0 0.0 0.00 0.00 0.00 73 1013.2
20240614050026 69 0.0 0.0 0.00 0.00 0.00 74 1013.4
20240614044529 69 0.0 0.0 0.00 0.00 0.00 73 1013.5
20240614043033 69 0.0 0.0 0.00 0.00 0.00 74 1013.8
20240614041532 70 0.0 0.0 0.00 0.00 0.00 73 1013.8
20240614040034 70 0.0 0.0 0.00 0.00 0.00 73 1013.9
20240614034527 70 0.0 0.0 0.00 0.00 0.00 72 1014.0
20240614033027 71 0.0 0.0 0.00 0.00 0.00 72 1014.3
20240614031525 71 0.0 0.0 0.00 0.00 0.00 71 1014.3
20240614030031 72 0.0 0.0 0.00 0.00 0.00 70 1014.4
20240614024525 72 0.0 0.0 0.00 0.00 0.00 69 1014.4
20240614023027 73 0.0 0.0 0.00 0.00 0.00 68 1013.9
20240614021530 73 0.0 0.0 0.00 0.00 0.00 67 1013.9
20240614020045 73 0.0 0.0 0.00 0.00 0.00 66 1013.9
20240614014528 73 0.0 0.0 0.00 0.00 0.00 65 1014.2
20240614013032 74 0.0 0.0 0.00 0.00 0.00 64 1014.2
20240614011527 74 0.0 0.0 0.00 0.00 0.00 63 1014.2
20240614010028 74 0.0 0.0 0.00 0.00 0.00 62 1014.0
20240614004544 75 0.0 0.0 0.00 0.00 0.00 60 1014.0
20240614003032 76 0.0 0.0 0.00 0.00 0.00 59 1014.1
20240614001534 76 0.0 0.0 0.00 0.00 0.00 58 1014.0
20240614000032 76 0.0 0.0 0.00 0.00 0.00 58 1013.9
20240613234607 77 0.0 0.0 0.00 0.00 0.00 56 1014.0
20240613233032 78 0.0 0.0 0.00 0.00 0.00 53 1013.9
20240613231528 78 0.0 0.0 0.00 0.00 0.00 52 1013.8
20240613230029 79 0.0 0.0 0.00 0.00 0.00 53 1013.9
20240613224527 79 0.0 0.0 0.00 0.00 0.00 52 1013.7
20240613223028 79 0.0 0.0 0.00 0.00 0.00 53 1014.1
20240613221527 79 0.0 0.0 0.00 0.00 0.00 50 1013.7
20240613220026 79 0.0 0.0 0.00 0.00 0.00 52 1013.7
20240613214525 79 0.0 0.0 0.00 0.00 0.00 53 1013.6
20240613213046 79 0.0 0.0 0.00 0.00 0.00 52 1013.8
20240613211528 79 0.0 0.0 0.00 0.00 0.00 53 1013.9
20240613210028 79 0.0 0.0 0.00 0.00 0.00 54 1013.9
20240613204531 80 0.0 0.0 0.00 0.00 0.00 52 1014.0
20240613203029 80 0.0 0.0 0.00 0.00 0.00 53 1014.1
20240613201528 80 0.0 0.0 0.00 0.00 0.00 49 1014.3
20240613200028 80 0.0 0.0 0.00 0.00 0.00 49 1014.3
20240613194526 80 0.0 0.0 0.00 0.00 0.00 47 1014.5
20240613193034 80 0.0 0.0 0.00 0.00 0.00 48 1014.7
20240613191529 80 0.0 0.0 0.00 0.00 0.00 48 1015.1
20240613190025 80 0.0 0.0 0.00 0.00 0.00 47 1015.1
20240613184538 79 0.0 0.0 0.00 0.00 0.00 47 1015.2
20240613183035 79 0.0 0.0 0.00 0.00 0.00 44 1015.3
20240613181527 79 0.0 0.0 0.00 0.00 0.00 46 1015.5
20240613180048 79 0.0 0.0 0.00 0.00 0.00 47 1015.6
20240613174542 79 0.0 0.0 0.00 0.00 0.00 47 1015.7
20240613173034 79 0.0 0.0 0.00 0.00 0.00 48 1016.0
20240613171528 78 0.0 0.0 0.00 0.00 0.00 48 1016.1
20240613170030 77 0.0 0.0 0.00 0.00 0.00 48 1016.1
20240613164532 77 0.0 0.0 0.00 0.00 0.00 47 1016.2
20240613163038 77 0.0 0.0 0.00 0.00 0.00 50 1016.3
20240613161533 78 0.0 0.0 0.00 0.00 0.00 49 1016.6
20240613160031 79 0.0 0.0 0.00 0.00 0.00 50 1016.8
20240613154528 79 0.0 0.0 0.00 0.00 0.00 48 1016.9
20240613153033 78 0.0 0.0 0.00 0.00 0.00 50 1017.1
20240613151529 78 0.0 0.0 0.00 0.00 0.00 47 1017.0
20240613150025 78 0.0 0.0 0.00 0.00 0.00 49 1017.2
20240613144528 77 0.0 0.0 0.00 0.00 0.00 50 1017.2
20240613143025 75 0.0 0.0 0.00 0.00 0.00 54 1017.5
20240613141543 75 0.0 0.0 0.00 0.00 0.00 55 1017.3
20240613140027 73 0.0 0.0 0.00 0.00 0.00 56 1017.4
20240613134540 71 0.0 0.0 0.00 0.00 0.00 62 1017.4
20240613133025 69 0.0 0.0 0.00 0.00 0.00 65 1017.7
20240613131529 67 0.0 0.0 0.00 0.00 0.00 68 1017.7
20240613130039 66 0.0 0.0 0.00 0.00 0.00 76 1017.7
20240613124535 64 0.0 0.0 0.00 0.00 0.00 79 1017.7
20240613123025 63 0.0 0.0 0.00 0.00 0.00 82 1017.7
20240613121528 61 0.0 0.0 0.00 0.00 0.00 90 1017.7
20240613120029 59 0.0 0.0 0.00 0.00 0.00 93 1017.7
20240613114528 58 0.0 0.0 0.00 0.00 0.00 94 1017.4
20240613113027 57 0.0 0.0 0.00 0.00 0.00 94 1017.5
20240613111525 56 0.0 0.0 0.00 0.00 0.00 95 1017.6
20240613110026 56 0.0 0.0 0.00 0.00 0.00 96 1017.6
20240613104537 55 0.0 0.0 0.00 0.00 0.00 96 1017.5
20240613103035 55 0.0 0.0 0.00 0.00 0.00 96 1017.5
20240613101532 54 0.0 0.0 0.00 0.00 0.00 96 1017.5
20240613100034 54 0.0 0.0 0.00 0.00 0.00 95 1017.1
20240613094555 55 0.0 0.0 0.00 0.00 0.00 95 1017.2
20240613093027 55 0.0 0.0 0.00 0.00 0.00 95 1017.1
20240613091529 55 0.0 0.0 0.00 0.00 0.00 94 1016.8
20240613090032 55 0.0 0.0 0.00 0.00 0.00 94 1016.7
20240613084529 55 0.0 0.0 0.00 0.00 0.00 94 1016.5
20240613083026 56 0.0 0.0 0.00 0.00 0.00 94 1016.4
20240613081529 56 0.0 0.0 0.00 0.00 0.00 94 1016.4
20240613080034 56 0.0 0.0 0.00 0.00 0.00 94 1016.4
20240613074528 56 0.0 0.0 0.00 0.00 0.00 94 1016.2
20240613073032 57 0.0 0.0 0.00 0.00 0.00 93 1016.1
20240613071528 57 0.0 0.0 0.00 0.00 0.00 93 1016.1
20240613070030 57 0.0 0.0 0.00 0.00 0.00 93 1016.1
20240613064532 58 0.0 0.0 0.00 0.00 0.00 93 1015.9
20240613063029 58 0.0 0.0 0.00 0.00 0.00 93 1015.8